{"data":{"norad_id":50814,"epoch":"2026-05-25T03:32:19.800096Z","epoch_age_seconds":62020,"freshness":"FRESH","line1":"1 50814U 22001M   26145.14745139 -.00000288  00000+0  12209-8 0  9995","line2":"2 50814  53.2127 185.8900 0001115  83.4689 276.6430 15.08836169241953","mean_motion":15.08836169,"eccentricity":0.0001115,"inclination_deg":53.2127,"raan_deg":185.89,"arg_perigee_deg":83.4689,"mean_anomaly_deg":276.643,"bstar":1.2209e-9,"rev_number":24195,"period_min":95.437796997826,"perigee_km":538.98375385425,"apogee_km":540.52644379228,"semimajor_km":6917.8920988233,"source":"CELESTRAK","updated_at":"2026-05-25T13:38:16.875958Z"}}